User: anonymous   Login
Location: Bégole
(43.1574°N, 0.3291°E)
Time: 15:35:49
(UTC+00:00)
Language:

SL-4 R/B - Orbit

View from above orbital plane
View from above orbital plane
View from above satellite
View from above satellite

Ground track
Ground track

The orbit data is extracted from the following two-line orbital elements,

1 39679U 14021B   23160.53328918  .00006642  00000-0  29374-3 0  9999
2 39679  51.6118  88.6883 0154318 123.1715 238.4167 15.12870093503400
Epoch (UTC): 09 June 2023 12:47:56
Eccentricity: 0.0154318
inclination: 51.6118°
perigee height: 421 km
apogee height: 634 km
right ascension of ascending node: 88.6883°
argument of perigee: 123.1715°
revolutions per day: 15.12870093
mean anomaly at epoch: 238.4167°
orbit number at epoch: 50340

The dashed part of the orbit path shows where the satellite is in the earth's shadow,  

DLR